Weather History for Covington, KY

Change the Weather History Date:

Tuesday, February 5, 2013

  Actual Average Record
Temperature  
Mean Temperature 32 °F 32 °F  
Max Temperature 38 °F 41 °F 67 °F (1927)
Min Temperature 25 °F 24 °F -9 °F (1979)
Degree Days  
Heating Degree Days 33 33  
Month to date heating degree days 212 165  
Since 1 July heating degree days 3040 3137  
Cooling Degree Days 0 0  
Month to date cooling degree days 0 0  
Year to date cooling degree days 0 0  
Moisture  
Dew Point 30 °F    
Average Humidity 88    
Maximum Humidity 100    
Minimum Humidity 75    
Precipitation  
Precipitation T in 0.10 in 1.56 in (1884)
Month to date precipitation 0.24 0.53  
Year to date precipitation 3.63 3.53  
Snow  
Snow 0.00 in 0.30 in 6.50 in (1998)
Month to date snowfall 2.9 1.4  
Since 1 July snowfall 12.7 13.5  
Snow Depth 1.00 in    
Sea Level Pressure  
Sea Level Pressure 29.91 in    
Wind  
Wind Speed 6 mph (WNW)    
Max Wind Speed 16 mph    
Max Gust Speed 22 mph    
Visibility 5 miles    
Events Fog    
T = Trace of Precipitation, MM = Missing Value Source: NWS Daily Summary

Daily Weather History Graph

Daily Weather History Graph

Search for Another Location

Airport:

Trip Planner

Search our weather history database for the weather conditions in past years. The results will help you decide how hot, cold, wet, or windy it might be!

Date:

Astronomy

Feb. 05, 2013 Rise Set
Actual Time 7:41 AM EST 6:04 PM EST
Civil Twilight 7:13 AM EST 6:32 PM EST
Nautical Twilight 6:41 AM EST 7:04 PM EST
Astronomical Twilight 6:10 AM EST 7:35 PM EST
Moon 3:21 AM EST (2/5) 1:22 PM EST (2/5)
Length of Visible Light 11h 19m
Length of Day
10h 23m
Waning Crescent, 27% of the Moon is Illuminated
Feb 5
Waning Crescent
Feb 10
New
Feb 17
First Quarter
Feb 25
Full
Mar 4
Last Quarter

Hourly Weather History & Observations

Time (EST) Temp. Windchill Dew Point Humidity Pressure Visibility Wind Dir Wind Speed Gust Speed Precip Events Conditions
12:38 AM 35.6 °F 32.8 °F 35.6 °F 100% 29.86 in 6.0 mi SW 3.5 mph - N/A   Overcast
12:52 AM 36.0 °F 33.3 °F 35.1 °F 97% 29.87 in 5.0 mi SW 3.5 mph - N/A   Overcast
1:13 AM 35.6 °F - 35.6 °F 100% 29.86 in 2.0 mi Calm Calm - N/A   Overcast
1:52 AM 35.1 °F - 34.0 °F 96% 29.86 in 0.5 mi Calm Calm - N/A   Overcast
2:52 AM 34.0 °F 31.0 °F 33.1 °F 96% 29.88 in 0.5 mi NW 3.5 mph - 0.00 in Fog Light Drizzle
3:30 AM 33.8 °F 28.6 °F 33.8 °F 100% 29.85 in 2.0 mi NNW 5.8 mph - 0.00 in   Overcast
3:52 AM 33.1 °F 25.5 °F 32.0 °F 96% 29.87 in 2.0 mi NNW 9.2 mph - 0.00 in   Overcast
4:37 AM 32.0 °F 22.5 °F 30.2 °F 93% 29.87 in 1.0 mi NNW 12.7 mph - N/A   Overcast
4:52 AM 30.9 °F 21.7 °F 30.0 °F 96% 29.90 in 1.0 mi North 11.5 mph - N/A   Overcast
5:19 AM 30.2 °F 24.3 °F 28.4 °F 93% 29.88 in 1.0 mi NNW 5.8 mph - N/A   Overcast
5:52 AM 30.9 °F 25.2 °F 27.0 °F 85% 29.88 in 5.0 mi NNW 5.8 mph - N/A   Overcast
6:52 AM 28.9 °F 22.8 °F 26.1 °F 89% 29.89 in 5.0 mi NNW 5.8 mph - N/A   Mostly Cloudy
7:13 AM 26.6 °F 20.0 °F 24.8 °F 93% 29.89 in 4.0 mi NW 5.8 mph - N/A   Scattered Clouds
7:43 AM 26.6 °F 19.1 °F 24.8 °F 93% 29.90 in 3.0 mi NW 6.9 mph - N/A   Mostly Cloudy
7:52 AM 27.0 °F 19.5 °F 25.0 °F 92% 29.94 in 2.5 mi NW 6.9 mph - N/A   Mostly Cloudy
8:06 AM 24.8 °F 17.9 °F 23.0 °F 93% 29.92 in 2.5 mi NW 5.8 mph - N/A   Mostly Cloudy
8:52 AM 26.1 °F 20.5 °F 23.0 °F 88% 29.96 in 3.0 mi NW 4.6 mph - N/A   Partly Cloudy
9:52 AM 30.9 °F 26.2 °F 25.0 °F 79% 29.95 in 4.0 mi NW 4.6 mph - N/A   Haze
10:52 AM 30.9 °F - 26.1 °F 82% 29.95 in 4.0 mi Calm Calm - N/A   Haze
11:52 AM 32.0 °F 26.4 °F 27.0 °F 82% 29.97 in 6.0 mi West 5.8 mph - N/A   Haze
12:52 PM 33.1 °F 26.1 °F 27.0 °F 78% 29.94 in 7.0 mi WSW 8.1 mph - N/A   Overcast
1:52 PM 34.0 °F 27.2 °F 28.0 °F 79% 29.90 in 7.0 mi SSW 8.1 mph - N/A   Overcast
2:52 PM 36.0 °F 30.3 °F 30.0 °F 79% 29.91 in 6.0 mi SSW 6.9 mph - N/A   Haze
3:52 PM 36.0 °F 30.3 °F 30.0 °F 79% 29.88 in 6.0 mi SSW 6.9 mph - N/A   Haze
4:52 PM 37.0 °F 33.3 °F 30.9 °F 79% 29.86 in 6.0 mi SSW 4.6 mph - N/A   Haze
5:52 PM 37.0 °F 34.5 °F 30.9 °F 79% 29.87 in 6.0 mi NW 3.5 mph - N/A   Haze
6:52 PM 36.0 °F 33.3 °F 30.9 °F 82% 29.89 in 7.0 mi West 3.5 mph - N/A   Mostly Cloudy
7:52 PM 35.1 °F 28.6 °F 30.9 °F 85% 29.94 in 7.0 mi NW 8.1 mph - N/A   Scattered Clouds
8:36 PM 37.4 °F 29.3 °F 30.2 °F 75% 29.94 in 8.0 mi WNW 12.7 mph - N/A   Overcast
8:52 PM 37.0 °F 30.4 °F 30.9 °F 79% 29.97 in 8.0 mi WNW 9.2 mph - N/A   Overcast
9:52 PM 36.0 °F 32.1 °F 30.9 °F 82% 29.99 in 8.0 mi West 4.6 mph - N/A   Overcast
10:23 PM 37.4 °F 32.1 °F 30.2 °F 75% 29.98 in 8.0 mi West 6.9 mph - N/A   Overcast
10:52 PM 37.0 °F 31.6 °F 30.9 °F 79% 30.01 in 8.0 mi West 6.9 mph - N/A   Overcast
11:33 PM 37.4 °F 29.8 °F 30.2 °F 75% 30.00 in 8.0 mi WNW 11.5 mph - N/A   Overcast
11:52 PM 37.0 °F 29.3 °F 30.9 °F 79% 30.02 in 8.0 mi WNW 11.5 mph - N/A   Overcast